Location: Arrien
(42.8963°N, 1.0429°E)
Time: 20:43:16
(UTC+00:00)

SL-16 R/B - Pass Details

Date: 22 March 2026
Orbit: 841 x 845 km, 71.0° (Epoch: 11 April)

Event Time Altitude Azimuth Distance (km) Brightness Sun altitude
Exits shadow 23:57:20 12° 4° (N) 2,340 5.0 -46.1°
Drops below altitude 10° 23:57:46 10° 6° (N) 2,473 5.2 -46.1°
Sets 00:00:33 0° 18° (NNE) 3,412 6.0 -46.2°
